Home   Weather   Umm al-Quwain   Past weeks

Flag for United Arab Emirates Past Weather in Umm al-Quwain, Umm al-Quwain, United Arab Emirates — Yesterday and Last 2 Weeks

Now
90 °F

Clear.


Feels Like: 105 °F
Forecast: 90 / 98 °F
Wind: 8 mph from South

Location: Sharjah International Airport

Current Time: Sep 29, 2016 at 12:45:09 AM

Latest Report: Sep 29, 2016 at 12:00 AM


Visibility: 10 mi

Pressure: 29.71 "Hg

Humidity: 71%

Dew Point: 79 °F

Location of Umm al-QuwainLocation

Past Weather in Umm al-Quwain — Graph

°F

Umm al-Quwain Temperature Yesterday

Maximum temperature yesterday: 99 °F (at 12:00 PM)
Minimum temperature yesterday: 82 °F (at 2:00 AM)
Average temperature yesterday: 90 °F

High & Low Weather Summary for the Past Weeks

 TemperatureHumidityPressure
High104 °F (Sep 14, 1:00 PM)94% (Sep 19, 5:00 AM)29.83 "Hg (Sep 19, 5:00 AM)
Low79 °F (Sep 19, 6:00 AM)21% (Sep 19, 1:00 PM)29.56 "Hg (Sep 24, 5:00 PM)
Average91 °F64%29.69 "Hg
* Reported Sep 13 11:00 PM — Sep 28 11:00 PM, Umm al-Quwain, Weather by CustomWeather, © 2016

Note: Actual official high and low records may vary slightly from our data, if they occured in-between our weather recording intervals... More about our weather records

Advertising

Umm al-Quwain Weather History for the Previous 24 Hours

Scroll right to see more
 ConditionsComfort  
Time TempWeatherWind HumidityBarometerVisibility
11:00 PM
Wed, Sep 28
90 °FPassing clouds.7 mph71%29.74 "HgN/A
10:00 PM91 °FPassing clouds.5 mph63%29.74 "HgN/A
9:00 PM91 °FClear.7 mph63%29.74 "Hg10 mi
8:00 PM93 °FClear.7 mph59%29.74 "Hg10 mi
7:00 PM91 °FClear.10 mph71%29.71 "Hg10 mi
6:00 PM93 °FSunny.12 mph67%29.71 "Hg10 mi
5:00 PM93 °FSunny.15 mph67%29.71 "Hg10 mi
4:00 PM97 °FSunny.15 mph50%29.71 "Hg10 mi
3:00 PM99 °FSunny.13 mph47%29.71 "Hg10 mi
2:00 PM99 °FPassing clouds.12 mph50%29.74 "HgN/A
1:00 PM99 °FPassing clouds.9 mph50%29.77 "HgN/A
12:00 PM99 °FPassing clouds.7 mph39%29.80 "HgN/A
11:00 AM95 °FPassing clouds.9 mph53%29.83 "HgN/A
10:00 AM91 °FClear.9 mph63%29.83 "Hg5 mi
9:00 AM90 °FClear.9 mph75%29.83 "Hg4 mi
8:00 AM88 °FHaze.8 mph75%29.83 "Hg2 mi
7:00 AM84 °FHaze.6 mph89%29.80 "Hg2 mi
6:00 AM84 °FHaze.8 mph89%29.77 "Hg3 mi
5:00 AM84 °FHaze.8 mph84%29.77 "Hg3 mi
4:00 AM82 °FHaze.5 mph89%29.74 "Hg3 mi
3:00 AM84 °FClear.3 mph84%29.74 "Hg4 mi
2:00 AM82 °FClear.5 mph89%29.77 "Hg5 mi
1:00 AM84 °FClear.3 mph84%29.77 "Hg5 mi
12:00 AM86 °FClear.3 mph79%29.77 "Hg5 mi
Weather by CustomWeather, © 2016

See weather overviewHow to use our weather pages